Moron de la Frontera, Spain

2:13 AM CEST on April 21, 2018 (GMT +0200)
Moron Air Base

Weather History for LEMO - September, 2012

Change the Weather History Date:

Saturday, September 15, 2012

  Actual Average Record
Temperature  
Mean Temperature 79 °F -  
Max Temperature 98 °F 80 °F 98 °F (2010)
Min Temperature 60 °F 59 °F 52 °F (2016)
Cooling Degree Days 14    
Growing Degree Days 29 (Base 50)    
Moisture  
Dew Point 59 °F    
Average Humidity 55    
Maximum Humidity 94    
Minimum Humidity 25    
Precipitation  
Precipitation 0.00 in - - ()
Sea Level Pressure  
Sea Level Pressure 29.94 in    
Wind  
Wind Speed 2 mph ()    
Max Wind Speed 9 mph    
Max Gust Speed -    
Averages and records for this station are not official NWS values.
T = Trace of Precipitation, MM = Missing Value Source: Averaged Metar Reports

Daily Weather History Graph

Daily Weather History Graph

Search for Another Location

Airport or City:

Astronomy

Sep. 15, 2012 Rise Set
Actual Time 8:04 AM CEST 8:29 PM CEST
Civil Twilight 7:38 AM CEST 8:55 PM CEST
Nautical Twilight 7:08 AM CEST 9:26 PM CEST
Astronomical Twilight 6:36 AM CEST 9:57 PM CEST
Moon 7:19 AM CEST (9/15) 7:53 PM CEST (9/15)
Length of Visible Light 13h 17m
Length of Day
12h 24m
Waning Crescent, 1% of the Moon is Illuminated
Sep 15
Waning Crescent
Sep 16
New
Sep 22
First Quarter
Sep 30
Full
Oct 8
Last Quarter

Hourly Weather History & Observations

Time (CEST) Temp. Heat Index Dew Point Humidity Pressure Visibility Wind Dir Wind Speed Gust Speed Precip Events Conditions
12:00 AM 75.2 °F - 64.4 °F 69% 29.98 in - West 4.6 mph - N/A   Clear
1:00 AM 71.6 °F - 62.6 °F 73% 29.98 in - Calm Calm - N/A   Clear
2:00 AM 71.6 °F - 62.6 °F 73% 29.98 in - South 3.5 mph - N/A   Clear
3:00 AM 69.8 °F - 60.8 °F 73% 29.98 in - Calm Calm - N/A   Clear
4:00 AM 66.2 °F - 57.2 °F 73% 29.95 in - SE 5.8 mph - N/A   Clear
5:00 AM 68.0 °F - 59.0 °F 73% 29.95 in - Calm Calm - N/A   Clear
6:00 AM 64.4 °F - 59.0 °F 83% 29.95 in - Calm Calm - N/A   Clear
7:00 AM 62.6 °F - 59.0 °F 88% 29.95 in - Calm Calm - N/A   Clear
8:00 AM 60.8 °F - 59.0 °F 94% 29.95 in - Calm Calm - N/A   Clear
9:00 AM 64.4 °F - 55.4 °F 73% 29.95 in - ESE 2.3 mph - N/A   Clear
10:00 AM 73.4 °F - 60.8 °F 65% 29.98 in - Calm Calm - N/A   Clear
11:00 AM 77.0 °F - 60.8 °F 57% 29.98 in - NE 5.8 mph - N/A   Clear
12:00 PM 82.4 °F 82.9 °F 60.8 °F 48% 29.98 in - Calm Calm - N/A   Clear
1:00 PM 87.8 °F 87.1 °F 59.0 °F 38% 29.95 in - Calm Calm - N/A   Clear
2:00 PM 91.4 °F 90.7 °F 59.0 °F 34% 29.95 in - Variable 1.2 mph - N/A   Clear
3:00 PM 95.0 °F 93.7 °F 57.2 °F 28% 29.92 in - Variable 2.3 mph - N/A   Clear
4:00 PM 96.8 °F 95.8 °F 57.2 °F 27% 29.89 in - Variable 1.2 mph - N/A   Clear
5:00 PM 98.6 °F 97.6 °F 57.2 °F 25% 29.89 in - West 4.6 mph - N/A   Clear
6:00 PM 98.6 °F 97.6 °F 57.2 °F 25% 29.86 in - NNW 6.9 mph - N/A   Clear
7:00 PM 98.6 °F 97.6 °F 57.2 °F 25% 29.86 in - West 4.6 mph - N/A   Clear
8:00 PM 95.0 °F 93.7 °F 57.2 °F 28% 29.86 in - NW 5.8 mph - N/A   Clear
9:00 PM 87.8 °F 87.1 °F 59.0 °F 38% 29.89 in - West 9.2 mph - N/A   Clear
10:00 PM 80.6 °F 81.8 °F 62.6 °F 54% 29.92 in - West 9.2 mph - N/A   Clear
11:00 PM 78.8 °F - 62.6 °F 57% 29.92 in - WSW 4.6 mph - N/A   Clear